Simultaneous Nadir Overpasses (SNOs) Predictions

Prediction of SNOs between METOP-A and TERRA Satellite Orbit:

Table of predicted SNOs for the next 14.0 days since TLE Epoch: 12/20/2014
Index Date (METOP-A) Time (METOP-A) Lat,Lon (METOP-A) SZA (METOP-A ) Date (TERRA) Time (TERRA) Lat,Lon (TERRA) SZA (TERRA ) Distance(km) Time Diff (sec)
1 12/21/2014 14:55:19 -81.31,-176.42 72.57 12/21/2014 14:55:24 -81.32,-176.30 72.55 2.30 5
2 12/21/2014 15:45:59 81.31, -8.88 107.46 12/21/2014 15:44:51 81.31, -8.88 107.42 0.57 68
3 12/24/2014 09:39:04 81.27, 80.60 107.13 12/24/2014 09:40:18 81.21, 80.58 107.11 7.36 74
4 12/24/2014 10:29:40 -81.31,-110.09 72.64 12/24/2014 10:29:40 -81.31,-110.00 72.63 1.56 0
5 12/24/2014 11:20:19 81.31, 57.82 107.43 12/24/2014 11:19:06 81.32, 57.76 107.39 1.03 73
6 12/27/2014 05:13:19 81.30, 148.77 107.22 12/27/2014 05:14:27 81.31, 148.79 107.25 0.69 68
7 12/27/2014 06:03:59 -81.31, -43.48 72.74 12/27/2014 06:03:54 -81.31, -43.66 72.77 2.94 5
8 12/30/2014 00:47:39 81.30,-144.72 107.04 12/30/2014 00:48:41 81.31,-144.83 107.06 1.79 62
9 12/30/2014 01:38:20 -81.31, 22.64 72.96 12/30/2014 01:38:08 -81.30, 22.75 72.96 1.93 12
10 01/01/2015 20:21:59 81.30, -78.32 106.80 01/01/2015 20:22:54 81.31, -78.39 106.82 1.16 55




NCC Satellite Simultaneous Nadir Overpasses (SNOs) Prediction Service
